User: anonymous   Login
Location: Newark
(49.7697°N, 2.7094°E)
Time: 04:27:28
(UTC+00:00)
Language:

Gurwin Techsat 1B - Orbit

View from above orbital plane
View from above orbital plane
View from above satellite
View from above satellite

Ground track
Ground track

The orbit data is extracted from the following two-line orbital elements,

1 25397U 98043D   20092.41836080 -.00000006  00000-0  16652-4 0  9994
2 25397  98.7216  34.5302 0000385 337.9519  22.1643 14.23681925128810
Epoch (UTC): 01 April 2020 10:02:26
Eccentricity: 0.0000385
inclination: 98.7216°
perigee height: 812 km
apogee height: 813 km
right ascension of ascending node: 34.5302°
argument of perigee: 337.9519°
revolutions per day: 14.23681925
mean anomaly at epoch: 22.1643°
orbit number at epoch: 12881

The dashed part of the orbit path shows where the satellite is in the earth's shadow,  

DLR